Date String (YYYY-MM-DD hh:mm:ss) UTC,Instrument flags,absolute air pressure of the measurement (hPa),sample flow rate (lpm),inlet stack bypass flow (lpm),air temperature of the measurement (°C),ambient temperature measured by the external sensor (°C),aerosol sample conditioner tube jacket temperature (°C),OPC LED temperature (°C),internal box temperature (°C),relative humidity of the measurement (%),span deviation,mass concentration of particles derived from Lorenz-Mie calculation of OPC scattering (μg/m³),mass concentration of particles derived from Lorenz-Mie calculation of OPC scattering (μg/m³),mass concentration of particles derived from Lorenz-Mie calculation of OPC scattering (μg/m³)
DateTimeUTC,F1_M11,P_M11,Q1_M11,Q2_M11,T1_M11,T2_M11,T3_M11,T4_M11,T5_M11,U1_M11,ZSPAN_M11,X2_M11,X0_M11,X1_M11
2023-11-15 18:00:00,SystemResetWarning,0833.7,4.99,000.00,027.7,026.9,000.0,036.0,029.2,9.0,0002.4,0005.05,0016.17,0003.94
2023-11-15 18:01:00,SystemResetWarning,0833.7,5.00,000.00,027.7,026.9,000.0,036.0,029.2,9.1,0000.2,0005.09,0016.40,0003.93
2023-11-15 18:02:00,SystemResetWarning,0833.7,5.00,000.00,027.7,026.9,000.0,036.0,029.2,9.2,-001.5,0005.09,0016.73,0003.91
2023-11-15 18:03:00,SystemResetWarning,0833.7,5.00,000.00,027.7,026.9,000.0,036.0,029.2,9.2,-001.0,0005.05,0018.29,0003.87
2023-11-15 18:04:00,SystemResetWarning,0833.6,5.00,000.00,027.7,026.9,000.0,036.0,029.2,9.1,-001.7,0005.07,0018.49,0003.86
2023-11-15 18:05:00,SystemResetWarning,0833.5,5.01,000.00,027.8,026.9,000.0,036.0,029.1,9.0,-003.7,0005.04,0017.54,0003.87
2023-11-15 18:06:00,SystemResetWarning,0833.5,5.00,000.00,027.8,026.9,000.0,036.0,029.1,9.2,0004.5,0005.09,0017.96,0003.88
2023-11-15 18:07:00,SystemResetWarning,0833.5,5.00,000.00,027.8,026.9,000.0,036.0,029.1,9.3,0004.8,0005.20,0018.92,0003.90
2023-11-15 18:08:00,SystemResetWarning,0833.4,5.00,000.00,027.8,026.9,000.0,036.0,029.1,9.2,0003.4,0005.26,0018.47,0003.94
2023-11-15 18:09:00,SystemResetWarning,0833.4,4.99,000.00,027.8,026.9,000.0,036.0,029.1,9.1,0001.8,0005.32,0018.53,0003.98
2023-11-15 18:10:00,SystemResetWarning,0833.4,5.00,000.00,027.8,026.9,000.0,036.0,029.2,9.1,-003.2,0005.38,0019.41,0004.03
2023-11-15 18:11:00,SystemResetWarning,0833.4,5.00,000.00,027.8,026.9,000.0,036.0,029.2,9.1,-006.5,0005.51,0019.88,0004.06
2023-11-15 18:12:00,SystemResetWarning,0833.4,5.00,000.00,027.8,026.9,000.0,036.1,029.2,9.1,-002.0,0005.63,0019.80,0004.10
2023-11-15 18:13:00,SystemResetWarning,0833.4,5.00,000.00,027.8,026.9,000.0,036.1,029.2,9.1,-001.1,0005.72,0019.58,0004.16
2023-11-15 18:14:00,SystemResetWarning,0833.4,5.00,000.00,027.8,026.9,000.0,036.1,029.2,9.2,0000.7,0005.85,0018.03,0004.23
2023-11-15 18:15:00,SystemResetWarning,0833.4,5.00,000.00,027.8,026.9,000.0,036.1,029.2,9.2,0001.9,0005.89,0018.58,0004.28
2023-11-15 18:16:00,SystemResetWarning,0833.4,5.01,000.00,027.8,026.9,000.0,036.1,029.2,9.2,0000.9,0005.98,0018.88,0004.31
2023-11-15 18:17:00,SystemResetWarning,0833.4,4.99,000.00,027.8,027.0,000.0,036.1,029.2,9.2,0000.5,0006.02,0019.29,0004.32
2023-11-15 18:18:00,SystemResetWarning,0833.4,5.00,000.00,027.8,027.0,000.0,036.1,029.2,9.2,-000.3,0006.00,0018.30,0004.34
2023-11-15 18:19:00,SystemResetWarning,0833.3,5.00,000.00,027.8,027.0,000.0,036.1,029.2,9.2,-001.6,0006.06,0018.44,0004.34
2023-11-15 18:20:00,SystemResetWarning,0833.3,5.00,000.00,027.8,027.0,000.0,036.1,029.3,9.1,-000.9,0006.11,0018.91,0004.37
2023-11-15 18:21:00,SystemResetWarning,0833.3,5.00,000.00,027.8,027.0,000.0,036.1,029.2,9.2,-001.4,0006.13,0017.98,0004.40
2023-11-15 18:22:00,SystemResetWarning,0833.2,5.00,000.00,027.8,027.0,000.0,036.1,029.3,9.2,-000.8,0006.04,0017.69,0004.41
2023-11-15 18:23:00,SystemResetWarning,0833.2,5.00,000.00,027.8,027.0,000.0,036.1,029.3,9.2,-000.7,0005.98,0018.36,0004.44
2023-11-15 18:24:00,SystemResetWarning,0833.2,5.00,000.00,027.9,027.0,000.0,036.1,029.2,9.0,-001.2,0006.00,0020.29,0004.47
2023-11-15 18:25:00,SystemResetWarning,0833.2,5.00,000.00,027.9,027.0,000.0,036.1,029.2,8.9,-002.5,0006.03,0020.24,0004.51
2023-11-15 18:26:00,SystemResetWarning,0833.2,5.01,000.00,027.9,027.0,000.0,036.1,029.3,9.0,-002.1,0006.10,0019.46,0004.55
2023-11-15 18:27:00,SystemResetWarning,0833.1,5.01,000.00,027.9,027.0,000.0,036.1,029.3,9.1,-001.5,0006.08,0020.00,0004.59
2023-11-15 18:28:00,SystemResetWarning,0833.3,5.01,000.00,027.9,027.0,000.0,036.1,029.3,9.0,-001.2,0006.09,0019.87,0004.64
2023-11-15 18:29:00,SystemResetWarning,0833.0,5.01,000.00,027.9,027.0,000.0,036.2,029.3,8.9,0000.0,0006.17,0020.45,0004.69
2023-11-15 18:30:00,SystemResetWarning,0833.0,4.99,000.00,027.9,027.0,000.0,036.2,029.3,8.9,-000.1,0006.20,0021.15,0004.73
2023-11-15 18:31:00,SystemResetWarning,0833.1,5.00,000.00,027.9,027.0,000.0,036.2,029.3,8.9,-000.9,0006.16,0020.46,0004.75
2023-11-15 18:32:00,SystemResetWarning,0833.3,5.00,000.00,027.9,027.1,000.0,036.2,029.3,8.7,-001.1,0006.20,0020.72,0004.76
2023-11-15 18:33:00,SystemResetWarning,0833.3,4.99,000.00,027.9,027.1,000.0,036.2,029.3,8.5,0000.3,0006.25,0021.21,0004.77
2023-11-15 18:34:00,SystemResetWarning,0833.0,5.00,000.00,027.9,027.1,000.0,036.2,029.4,8.1,0000.4,0006.24,0019.72,0004.75
2023-11-15 18:35:00,SystemResetWarning,0833.1,5.00,000.00,028.0,027.1,000.0,036.2,029.3,8.2,0002.6,0006.22,0017.57,0004.73
2023-11-15 18:36:00,SystemResetWarning,0832.9,5.01,000.00,028.0,027.1,000.0,036.2,029.4,8.3,0003.5,0006.16,0017.08,0004.71
2023-11-15 18:37:00,SystemResetWarning,0833.0,5.01,000.00,028.0,027.1,000.0,036.2,029.4,8.3,0004.3,0006.11,0016.77,0004.68
2023-11-15 18:38:00,SystemResetWarning,0833.0,5.01,000.00,028.0,027.1,000.0,036.2,029.4,8.5,0004.2,0006.08,0017.66,0004.64
2023-11-15 18:39:00,SystemResetWarning,0832.9,4.99,000.00,028.0,027.2,000.0,036.3,029.4,8.7,0005.0,0006.00,0017.41,0004.59
2023-11-15 18:40:00,SystemResetWarning,0832.9,5.00,000.00,028.0,027.2,000.0,036.3,029.4,8.4,0004.0,0005.82,0016.79,0004.48
2023-11-15 18:41:00,SystemResetWarning,0832.9,5.00,000.00,028.1,027.2,000.0,036.3,029.4,8.4,0003.7,0005.63,0015.99,0004.40
2023-11-15 18:42:00,SystemResetWarning,0833.1,5.00,000.00,028.1,027.2,000.0,036.3,029.5,8.3,0003.5,0005.59,0016.51,0004.33
2023-11-15 18:43:00,SystemResetWarning,0833.2,5.01,000.00,028.1,027.2,000.0,036.3,029.5,8.3,0003.5,0005.49,0016.45,0004.25
2023-11-15 18:44:00,SystemResetWarning,0832.8,5.01,000.00,028.1,027.2,000.0,036.3,029.5,8.3,0003.9,0005.41,0015.34,0004.20
2023-11-15 18:45:00,SystemResetWarning,0832.7,5.00,000.00,028.1,027.2,000.0,036.3,029.5,8.3,0004.4,0005.40,0015.37,0004.18
2023-11-15 18:46:00,SystemResetWarning,0832.7,5.00,000.00,028.1,027.3,000.0,036.3,029.5,8.1,0004.7,0005.28,0015.49,0004.12
2023-11-15 18:47:00,SystemResetWarning,0832.7,5.00,000.00,028.1,027.3,000.0,036.3,029.5,8.0,0004.5,0005.20,0015.45,0004.08
2023-11-15 18:48:00,SystemResetWarning,0832.7,4.99,000.00,028.1,027.3,000.0,036.4,029.5,8.1,0001.6,0005.13,0015.50,0004.02
2023-11-15 18:49:00,SystemResetWarning,0832.7,5.00,000.00,028.1,027.3,000.0,036.4,029.5,8.0,0000.9,0005.05,0014.20,0003.97
2023-11-15 18:50:00,SystemResetWarning,0832.7,5.01,000.00,028.2,027.3,000.0,036.4,029.6,8.0,0000.0,0005.01,0012.83,0003.92
2023-11-15 18:51:00,SystemResetWarning,0832.7,5.01,000.00,028.2,027.3,000.0,036.4,029.6,7.8,0000.0,0005.02,0012.74,0003.92
2023-11-15 18:52:00,SystemResetWarning,0832.6,4.99,000.00,028.2,027.3,000.0,036.4,029.6,7.8,0000.4,0005.00,0012.92,0003.88
2023-11-15 18:53:00,SystemResetWarning,0832.6,4.99,000.00,028.2,027.3,000.0,036.4,029.6,7.8,0002.2,0004.93,0012.08,0003.84
2023-11-15 18:54:00,SystemResetWarning,0832.6,5.00,000.00,028.2,027.3,000.0,036.4,029.6,7.5,0002.8,0004.87,0011.66,0003.82
2023-11-15 18:55:00,SystemResetWarning,0832.5,5.01,000.00,028.2,027.3,000.0,036.4,029.6,7.5,0001.8,0004.78,0011.22,0003.77
2023-11-15 18:56:00,SystemResetWarning,0832.5,5.01,000.00,028.2,027.3,000.0,036.4,029.6,7.6,0000.4,0004.67,0011.06,0003.70
2023-11-15 18:57:00,SystemResetWarning,0832.5,5.00,000.00,028.2,027.4,000.0,036.5,029.6,7.8,-002.0,0004.56,0010.34,0003.64
2023-11-15 18:58:00,SystemResetWarning,0832.5,5.00,000.00,028.2,027.4,000.0,036.5,029.6,7.6,-002.3,0004.49,0010.48,0003.59
2023-11-15 18:59:00,SystemResetWarning,0832.5,5.00,000.00,028.2,027.4,000.0,036.5,029.7,7.9,-002.3,0004.41,0010.18,0003.53
